Preston, Minnesota, United States (55965)
Lat: 43.67N, Lon: 92.08W
Wx Zone: MNZ095
Local Info
Past Weather Observations for Today

NOTE: This archive is for the closest National Weather Service station to Preston. Information may differ from the station used for current weather conditions.

Click here for Long-term Archive

Time Weather Temperature Dewpoint Humidity Pressure Winds Precip Visibility
18:36
Clear
50°F / 10°C 46°F / 8°C 88% 30.21 in
(1023 mb)
Calm - 10SM
18:15
Partly Cloudy
50°F / 10°C 46°F / 8°C 88% 30.21 in
(1023 mb)
NW 4.6 mph
(NW 7 kph)
- 10SM
17:56
Overcast
54°F / 12°C 46°F / 8°C 77% 30.21 in
(1023 mb)
NW 4.6 mph
(NW 7 kph)
- 10SM
17:36
Mostly Cloudy
55°F / 13°C 46°F / 8°C 72% 30.18 in
(1022 mb)
Calm - 10SM
17:16
Mostly Cloudy
55°F / 13°C 46°F / 8°C 72% 30.18 in
(1022 mb)
NNW 8.1 mph
(NNW 13 kph)
- 10SM
16:55
Clear
55°F / 13°C 46°F / 8°C 72% 30.18 in
(1022 mb)
NNW 5.8 mph
(NNW 9 kph)
- 10SM
16:35
Partly Cloudy
55°F / 13°C 46°F / 8°C 72% 30.18 in
(1022 mb)
NNW 9.2 mph
(NNW 15 kph)
- 10SM
16:16
Overcast
55°F / 13°C 48°F / 9°C 77% 30.18 in
(1022 mb)
N 6.9 mph
(N 11 kph)
- 10SM
15:55
Overcast
55°F / 13°C 48°F / 9°C 77% 30.18 in
(1022 mb)
NNW 6.9 mph
(NNW 11 kph)
- 10SM
15:35
Mostly Cloudy
57°F / 14°C 48°F / 9°C 72% 30.18 in
(1022 mb)
N 10.4 mph
(N 17 kph)
- 10SM
15:16
Mostly Cloudy
57°F / 14°C 48°F / 9°C 72% 30.18 in
(1022 mb)
N 10.4 mph
(N 17 kph)
- 10SM
14:55
Mostly Cloudy
57°F / 14°C 48°F / 9°C 72% 30.18 in
(1022 mb)
N 13.8 mph
(N 22 kph)
- 10SM
14:36
Mostly Cloudy
57°F / 14°C 48°F / 9°C 72% 30.18 in
(1022 mb)
NNW 10.4 mph
(NNW 17 kph)
- 10SM
14:16
Mostly Cloudy
57°F / 14°C 48°F / 9°C 72% 30.18 in
(1022 mb)
N 9.2 mph
(N 15 kph)
- 10SM
13:55
Partly Cloudy
57°F / 14°C 50°F / 10°C 77% 30.18 in
(1022 mb)
NNW 11.5 mph
(NNW 19 kph)
- 10SM
13:36
Partly Cloudy
55°F / 13°C 48°F / 9°C 77% 30.18 in
(1022 mb)
NNW 11.5 mph
(NNW 19 kph)
- 10SM
13:16
Mostly Cloudy
55°F / 13°C 48°F / 9°C 77% 30.21 in
(1023 mb)
NNW 6.9 mph
(NNW 11 kph)
- 10SM
12:55
Mostly Cloudy
54°F / 12°C 48°F / 9°C 82% 30.21 in
(1023 mb)
N 10.4 mph
(N 17 kph)
- 10SM
12:36
Mostly Cloudy
55°F / 13°C 48°F / 9°C 77% 30.21 in
(1023 mb)
NNW 9.2 mph
(NNW 15 kph)
- 10SM
12:16
Partly Cloudy
55°F / 13°C 48°F / 9°C 77% 30.21 in
(1023 mb)
N 11.5 mph
(N 19 kph)
- 10SM
11:55
Mostly Cloudy
54°F / 12°C 48°F / 9°C 82% 30.21 in
(1023 mb)
N 9.2 mph
(N 15 kph)
- 10SM
11:36
Overcast
54°F / 12°C 48°F / 9°C 82% 30.18 in
(1022 mb)
NNE 8.1 mph
(NNE 13 kph)
- 10SM
11:16
Overcast
54°F / 12°C 48°F / 9°C 82% 30.18 in
(1022 mb)
NNE 6.9 mph
(NNE 11 kph)
- 10SM
10:56
Mostly Cloudy
52°F / 11°C 50°F / 10°C 94% 30.21 in
(1023 mb)
N 11.5 mph
(N 19 kph)
- 10SM
10:35
Mostly Cloudy
50°F / 10°C 48°F / 9°C 94% 30.18 in
(1022 mb)
N 12.7 mph
(N 20 kph)
- 10SM
10:16
Overcast
48°F / 9°C 48°F / 9°C 100% 30.18 in
(1022 mb)
N 9.2 mph
(N 15 kph)
- 10SM
09:55
Overcast
48°F / 9°C 48°F / 9°C 100% 30.18 in
(1022 mb)
NE 8.1 mph
(NE 13 kph)
0.02 in
(0.51 mm)
10SM
09:36
Overcast
Light Rain
48°F / 9°C 48°F / 9°C 100% 30.18 in
(1022 mb)
NNE 9.2 mph
(NNE 15 kph)
0.02 in
(0.51 mm)
10SM
09:15
Overcast
Rain
48°F / 9°C 48°F / 9°C 100% 30.18 in
(1022 mb)
N 6.9 mph
(N 11 kph)
0.01 in
(0.25 mm)
5SM
08:56
Overcast
Light Rain
48°F / 9°C 48°F / 9°C 100% 30.21 in
(1023 mb)
N 8.1 mph
(N 13 kph)
0.03 in
(0.76 mm)
7SM
08:35
Overcast
Rain
48°F / 9°C 48°F / 9°C 100% 30.18 in
(1022 mb)
N 6.9 mph
(N 11 kph)
0.02 in
(0.51 mm)
7SM
08:16
Overcast
Light Rain
48°F / 9°C 48°F / 9°C 100% 30.18 in
(1022 mb)
N 6.9 mph
(N 11 kph)
0.01 in
(0.25 mm)
7SM
07:56
Overcast
Light Rain
48°F / 9°C 48°F / 9°C 100% 30.18 in
(1022 mb)
N 8.1 mph
(N 13 kph)
0.01 in
(0.25 mm)
7SM
07:35
Overcast
Light Rain
48°F / 9°C 48°F / 9°C 100% 30.18 in
(1022 mb)
N 9.2 mph
(N 15 kph)
0.01 in
(0.25 mm)
5SM
07:15
Overcast
Light Rain
48°F / 9°C 48°F / 9°C 100% 30.15 in
(1021 mb)
N 4.6 mph
(N 7 kph)
- 5SM
06:56
Overcast
Rain
48°F / 9°C 48°F / 9°C 100% 30.15 in
(1021 mb)
Calm 0.05 in
(1.27 mm)
4SM
06:35
Overcast
Light Rain
48°F / 9°C 48°F / 9°C 100% 30.15 in
(1021 mb)
NNE 3.5 mph
(NNE 6 kph)
0.03 in
(0.76 mm)
4SM
06:16
Overcast
Rain
48°F / 9°C 48°F / 9°C 100% 30.18 in
(1022 mb)
NNW 3.5 mph
(NNW 6 kph)
0.01 in
(0.25 mm)
7SM
05:56
Mostly Cloudy
Light Rain
48°F / 9°C 48°F / 9°C 100% 30.15 in
(1021 mb)
Calm 0.02 in
(0.51 mm)
7SM
05:36
Mostly Cloudy
Light Rain
48°F / 9°C 48°F / 9°C 100% 30.15 in
(1021 mb)
Calm 0.01 in
(0.25 mm)
10SM
05:16
Overcast
48°F / 9°C 48°F / 9°C 100% 30.15 in
(1021 mb)
Calm - 10SM
04:55
Overcast
Light Rain
48°F / 9°C 48°F / 9°C 100% 30.15 in
(1021 mb)
Calm 0.04 in
(1.02 mm)
5SM
04:36
Overcast
Light Rain
48°F / 9°C 48°F / 9°C 100% 30.15 in
(1021 mb)
Calm 0.03 in
(0.76 mm)
7SM
04:15
Overcast
Light Rain
48°F / 9°C 48°F / 9°C 100% 30.15 in
(1021 mb)
Calm 0.01 in
(0.25 mm)
7SM
03:56
Overcast
Light Rain
48°F / 9°C 48°F / 9°C 100% 30.15 in
(1021 mb)
Calm 0.05 in
(1.27 mm)
7SM
03:36
Overcast
Light Rain
48°F / 9°C 48°F / 9°C 100% 30.15 in
(1021 mb)
Calm 0.03 in
(0.76 mm)
7SM
03:16
Overcast
Light Rain
48°F / 9°C 48°F / 9°C 100% 30.15 in
(1021 mb)
Calm 0.01 in
(0.25 mm)
7SM
02:55
Overcast
Light Rain
48°F / 9°C 48°F / 9°C 100% 30.15 in
(1021 mb)
Calm 0.07 in
(1.78 mm)
7SM
02:36
Overcast
Rain
48°F / 9°C 48°F / 9°C 100% 30.15 in
(1021 mb)
Calm 0.06 in
(1.52 mm)
7SM
02:15
Overcast
Rain
48°F / 9°C 48°F / 9°C 100% 30.15 in
(1021 mb)
Calm 0.02 in
(0.51 mm)
7SM
01:56
Overcast
Rain
50°F / 10°C 50°F / 10°C 100% 30.15 in
(1021 mb)
NNE 6.9 mph
(NNE 11 kph)
0.01 in
(0.25 mm)
7SM
01:35
Overcast
Light Rain
50°F / 10°C 50°F / 10°C 100% 30.15 in
(1021 mb)
N 8.1 mph
(N 13 kph)
- 10SM
01:15
Overcast
52°F / 11°C 50°F / 10°C 94% 30.15 in
(1021 mb)
N 4.6 mph
(N 7 kph)
- 10SM
00:55
Overcast
52°F / 11°C 48°F / 9°C 88% 30.15 in
(1021 mb)
NE 3.5 mph
(NE 6 kph)
- 10SM
00:36
Overcast
54°F / 12°C 48°F / 9°C 82% 30.15 in
(1021 mb)
NNE 3.5 mph
(NNE 6 kph)
- 10SM
00:15
Mostly Cloudy
52°F / 11°C 48°F / 9°C 88% 30.15 in
(1021 mb)
NNE 6.9 mph
(NNE 11 kph)
- 10SM
Time Weather Temperature Dewpoint Humidity Pressure Winds Precip Visibility


Weather for websites

WeatherForYou.com, LLC is not responsible for any damages or problems caused by this service. Current weather conditions are obtained from the closest station including government and personal stations which may have varying degrees of accuracy. Weather forecasts are derived from the NOAA NDFD. Like all things, this site belongs to Jesus Christ... He just trusts me to maintain it. If you have any questions or comments email webmaster@weatherforyou.com

Copyright © 2014, WeatherForYou.com LLC. All rights reserved.